Location: Udine
(46.0620°N, 13.2420°E)
Time: 01:48:01
(UTC+02:00)

ISS - Pass Details

Date: 09 May 2021
Orbit: 417 x 422 km, 51.6° (Epoch: 14 June)

Event Time Altitude Azimuth Distance (km) Brightness Sun altitude
Exits shadow 02:02:33 29° 44° (NE) 801 -1.9 -25.2°
Drops below altitude 10° 02:04:27 10° 58° (ENE) 1,509 -0.4 -25.1°
Sets 02:06:35 0° 63° (ENE) 2,376 0.7 -25.0°
